Oak Ridge, TN

11:46 PM EST on November 13, 2019 (GMT -0500)
Oak Ridge

Weather History for KOQT - September, 2019

Change the Weather History Date:

Sunday, September 1, 2019

  Actual Average (KTYS) Record (KTYS)
Temperature  
Mean Temperature 78 °F -  
Max Temperature 90 °F 85 °F 100 °F (1951)
Min Temperature 66 °F 65 °F 50 °F (1946)
Cooling Degree Days 12    
Growing Degree Days 28 (Base 50)    
Moisture  
Dew Point 64 °F    
Average Humidity 75    
Maximum Humidity 93    
Minimum Humidity 37    
Precipitation  
Precipitation 0.00 in - - ()
Sea Level Pressure  
Sea Level Pressure 30.13 in    
Wind  
Wind Speed 0 mph ()    
Max Wind Speed 4 mph    
Max Gust Speed -    
Visibility 8.4 miles    
Events Fog    
Averages and records for this station are not official NWS values.
T = Trace of Precipitation, MM = Missing Value Source: Averaged Metar Reports

Daily Weather History Graph

Daily Weather History Graph

Search for Another Location

Airport or City:

Astronomy

Sep. 01, 2019 Rise Set
Actual Time 7:08 AM EDT 8:04 PM EDT
Civil Twilight 6:42 AM EDT 8:30 PM EDT
Nautical Twilight 6:11 AM EDT 9:01 PM EDT
Astronomical Twilight 5:39 AM EDT 9:33 PM EDT
Moon 9:33 AM EDT (9/1) 9:56 PM EDT (9/1)
Length of Visible Light 13h 48m
Length of Day
12h 56m
Waxing Crescent, 8% of the Moon is Illuminated
Sep 1
Waxing Crescent
Sep 5
First Quarter
Sep 14
Full
Sep 21
Last Quarter
Sep 28
New

Hourly Weather History & Observations

Time (EDT) Temp. Heat Index Dew Point Humidity Pressure Visibility Wind Dir Wind Speed Gust Speed Precip Events Conditions
12:53 AM 72.0 °F - 64.9 °F 78% 30.11 in 10.0 mi Calm Calm - N/A   Clear
1:53 AM 70.0 °F - 64.9 °F 84% 30.12 in 10.0 mi Calm Calm - N/A   Clear
2:53 AM 69.1 °F - 64.9 °F 87% 30.12 in 10.0 mi Calm Calm - N/A   Clear
3:53 AM 69.1 °F - 64.9 °F 87% 30.12 in 10.0 mi Calm Calm - N/A   Overcast
4:53 AM 66.9 °F - 64.0 °F 90% 30.12 in 10.0 mi Calm Calm - N/A   Scattered Clouds
5:53 AM 66.0 °F - 63.0 °F 90% 30.13 in 10.0 mi Calm Calm - N/A   Partly Cloudy
6:20 AM 66.0 °F - 63.0 °F 90% 30.17 in 10.0 mi Calm Calm - N/A   Mostly Cloudy
6:45 AM 66.0 °F - 63.0 °F 90% 30.18 in 1.5 mi Calm Calm - N/A   Overcast
6:53 AM 66.0 °F - 64.0 °F 93% 30.14 in 0.5 mi Calm Calm - N/A Fog Fog
7:07 AM 66.0 °F - 64.0 °F 93% 30.18 in - Calm Calm - N/A   Overcast
7:53 AM 66.0 °F - 64.0 °F 93% 30.16 in - Calm Calm - N/A   Overcast
8:44 AM 66.9 °F - 64.9 °F 93% 30.22 in 1.2 mi Calm Calm - N/A   Overcast
8:53 AM 66.9 °F - 64.9 °F 93% 30.18 in 0.5 mi Calm Calm - N/A Fog Fog
9:10 AM 66.9 °F - 64.9 °F 93% 30.22 in 2.0 mi Calm Calm - N/A   Overcast
9:20 AM 68.0 °F - 66.0 °F 93% 30.22 in 9.0 mi Calm Calm - N/A   Mostly Cloudy
9:30 AM 68.0 °F - 66.0 °F 93% 30.22 in 10.0 mi Calm Calm - N/A   Scattered Clouds
9:53 AM 73.9 °F - 66.0 °F 76% 30.18 in 10.0 mi Calm Calm - N/A   Clear
10:53 AM 79.0 °F - 64.9 °F 62% 30.18 in 10.0 mi Calm Calm - N/A   Clear
12:53 PM 84.9 °F 86.1 °F 64.0 °F 49% 30.15 in 10.0 mi Calm Calm - N/A   Clear
1:53 PM 86.0 °F 87.3 °F 64.0 °F 48% 30.14 in 10.0 mi Variable 3.5 mph - N/A   Mostly Cloudy
2:53 PM 89.1 °F 91.0 °F 64.9 °F 45% 30.11 in 10.0 mi Variable 3.5 mph - N/A   Mostly Cloudy
3:53 PM 88.0 °F 87.1 °F 59.0 °F 37% 30.08 in 10.0 mi SE 3.5 mph - N/A   Clear
4:53 PM 89.1 °F 90.0 °F 63.0 °F 42% 30.06 in 10.0 mi Variable 3.5 mph - N/A   Clear
5:53 PM 88.0 °F 87.9 °F 61.0 °F 40% 30.05 in 10.0 mi Calm Calm - N/A   Clear
6:53 PM 87.1 °F 87.5 °F 62.1 °F 43% 30.05 in 10.0 mi Calm Calm - N/A   Clear
7:53 PM 82.0 °F 83.8 °F 64.9 °F 56% 30.06 in 10.0 mi Calm Calm - N/A   Clear
8:53 PM 77.0 °F - 66.9 °F 71% 30.07 in 10.0 mi Calm Calm - N/A   Clear
9:53 PM 75.0 °F - 66.0 °F 73% 30.07 in 10.0 mi Calm Calm - N/A   Clear
10:53 PM 73.0 °F - 66.0 °F 79% 30.08 in 10.0 mi Calm Calm - N/A   Clear
11:53 PM 71.1 °F - 66.0 °F 84% 30.08 in 10.0 mi Calm Calm - N/A   Clear